Weather History for KLEX - February, 2015

Change the Weather History Date:

Monday, February 16, 2015

  Actual Average Record
Temperature  
Mean Temperature 13 °F 37 °F  
Max Temperature 18 °F 46 °F 69 °F (1889)
Min Temperature 8 °F 28 °F 0 °F (1905)
Degree Days  
Heating Degree Days 52 28  
Month to date heating degree days 552 474  
Since 1 July heating degree days 3414 3257  
Cooling Degree Days 0 0  
Month to date cooling degree days 0 0  
Year to date cooling degree days 0 0  
Moisture  
Dew Point 7 °F    
Average Humidity 70    
Maximum Humidity 92    
Minimum Humidity 47    
Precipitation  
Precipitation 1.05 in 0.11 in 0.89 in (1932)
Month to date precipitation 1.71 1.81  
Year to date precipitation 3.56 5.01  
Snow  
Snow 10.20 in 0.20 in 6.00 in (1967)
Month to date snowfall 10.9 3.0  
Since 1 July snowfall 18.4 9.7  
Snow Depth 2.00 in    
Sea Level Pressure  
Sea Level Pressure 30.05 in    
Wind  
Wind Speed 12 mph (NE)    
Max Wind Speed 17 mph    
Max Gust Speed 21 mph    
Visibility 3 miles    
Events Fog , Snow    
T = Trace of Precipitation, MM = Missing Value Source: NWS Daily Summary

Daily Weather History Graph

Daily Weather History Graph

Search for Another Location

Airport or City:

Trip Planner

Search our weather history database for the weather conditions in past years. The results will help you decide how hot, cold, wet, or windy it might be!

Date:

Astronomy

Feb. 16, 2015 Rise Set
Actual Time 7:27 AM EST 6:17 PM EST
Civil Twilight 7:00 AM EST 6:44 PM EST
Nautical Twilight 6:29 AM EST 7:15 PM EST
Astronomical Twilight 5:59 AM EST 7:46 PM EST
Moon 5:19 AM EST (2/16) 3:57 PM EST (2/16)
Length of Visible Light 11h 44m
Length of Day
10h 50m
Waning Crescent, 8% of the Moon is Illuminated
Feb 16
Waning Crescent
Feb 18
New
Feb 25
First Quarter
Mar 5
Full
Mar 13
Last Quarter

Hourly Weather History & Observations

Time (EST) Temp. Windchill Dew Point Humidity Pressure Visibility Wind Dir Wind Speed Gust Speed Precip Events Conditions
12:54 AM 17.1 °F 5.0 °F 1.0 °F 50% 30.36 in 10.0 mi ENE 10.4 mph - N/A   Overcast
1:54 AM 16.0 °F 2.9 °F 1.9 °F 54% 30.34 in 9.0 mi ENE 11.5 mph - 0.00 in   Overcast
2:54 AM 15.1 °F 0.5 °F 3.9 °F 61% 30.32 in 10.0 mi NE 13.8 mph - 0.00 in   Overcast
3:54 AM 12.9 °F -1.6 °F 8.1 °F 81% 30.29 in 2.5 mi ENE 12.7 mph - 0.02 in Snow Light Snow
4:15 AM 12.9 °F -2.8 °F 9.0 °F 84% 30.23 in 1.5 mi ENE 15.0 mph - 0.01 in Snow Light Snow
4:54 AM 12.9 °F -1.6 °F 9.0 °F 84% 30.30 in 1.5 mi ENE 12.7 mph - 0.03 in Snow Light Snow
5:03 AM 12.9 °F -0.9 °F 9.0 °F 84% 30.24 in 0.8 mi East 11.5 mph - 0.00 in Snow Light Snow
5:20 AM 12.9 °F 0.7 °F 9.0 °F 84% 30.23 in 0.5 mi East 9.2 mph - 0.03 in Fog , Snow Snow
5:54 AM 12.9 °F -2.2 °F 9.0 °F 84% 30.26 in 0.8 mi East 13.8 mph - 0.06 in Snow Light Snow
6:20 AM 12.0 °F -4.0 °F 9.0 °F 88% 30.20 in 0.5 mi ENE 15.0 mph - 0.03 in Fog , Snow Snow
6:54 AM 12.0 °F -1.3 °F 8.1 °F 84% 30.23 in 0.5 mi East 10.4 mph - 0.08 in Fog , Snow Snow
7:31 AM 12.0 °F -2.7 °F 8.1 °F 84% 30.14 in 0.2 mi East 12.7 mph - 0.05 in Fog , Snow Snow
7:54 AM 10.9 °F -5.4 °F 8.1 °F 88% 30.19 in 0.2 mi East 15.0 mph - 0.08 in Fog , Snow Snow
8:04 AM 12.0 °F 0.5 °F 8.1 °F 84% 30.15 in 0.5 mi East 8.1 mph - 0.01 in Fog , Snow Snow
8:37 AM 12.0 °F -2.0 °F 8.1 °F 84% 30.15 in 0.2 mi ENE 11.5 mph - 0.04 in Fog , Snow Snow
8:54 AM 12.0 °F -1.3 °F 8.1 °F 84% 30.19 in 0.2 mi ENE 10.4 mph - 0.06 in Fog , Snow Snow
9:54 AM 10.9 °F -4.1 °F 7.0 °F 84% 30.18 in 0.2 mi ENE 12.7 mph - 0.08 in Fog , Snow Snow
10:54 AM 10.9 °F -4.7 °F 7.0 °F 84% 30.14 in 0.2 mi ENE 13.8 mph - 0.11 in Fog , Snow Snow
11:37 AM 10.9 °F -4.7 °F 7.0 °F 84% 30.07 in 0.5 mi ENE 13.8 mph - 0.05 in Fog , Snow Snow
11:54 AM 10.9 °F -4.7 °F 7.0 °F 84% 30.11 in 0.5 mi ENE 13.8 mph - 0.07 in Fog , Snow Snow
12:27 PM 10.9 °F -5.4 °F 7.0 °F 84% 30.03 in 0.2 mi ENE 15.0 mph - 0.04 in Fog , Snow Snow
12:54 PM 10.9 °F -5.4 °F 7.0 °F 84% 30.05 in 0.2 mi ENE 15.0 mph - 0.08 in Fog , Snow Snow
1:54 PM 12.0 °F -3.4 °F 8.1 °F 84% 29.99 in 0.2 mi ENE 13.8 mph - 0.11 in Fog , Snow Snow
2:22 PM 12.0 °F -2.7 °F 8.1 °F 84% 29.92 in 0.5 mi ENE 12.7 mph - 0.05 in Fog , Snow Snow
2:29 PM 12.0 °F -3.4 °F 8.1 °F 84% 29.93 in 0.2 mi ENE 13.8 mph - 0.06 in Fog , Snow Snow
2:54 PM 12.0 °F -1.3 °F 8.1 °F 84% 29.98 in 0.2 mi NE 10.4 mph - 0.11 in Fog , Snow Snow
3:03 PM 12.0 °F -2.7 °F 8.1 °F 84% 29.91 in 0.5 mi ENE 12.7 mph - 0.00 in Fog , Snow Snow
3:45 PM 12.0 °F -2.0 °F 8.1 °F 84% 29.90 in 0.2 mi NE 11.5 mph - 0.05 in Fog , Snow Snow
3:54 PM 10.9 °F -3.4 °F 8.1 °F 88% 29.94 in 0.2 mi NE 11.5 mph - 0.06 in Fog , Snow Snow
4:02 PM 10.9 °F -3.4 °F 8.1 °F 88% 29.89 in 0.5 mi NE 11.5 mph - 0.01 in Fog , Snow Snow
4:25 PM 12.0 °F -1.3 °F 8.1 °F 84% 29.90 in 0.8 mi NE 10.4 mph - 0.03 in Snow Light Snow
4:54 PM 10.9 °F -3.4 °F 7.0 °F 84% 29.96 in 0.8 mi NNE 11.5 mph - 0.05 in Snow Light Snow
5:19 PM 12.0 °F -1.3 °F 8.1 °F 84% 29.89 in 1.0 mi NNE 10.4 mph - 0.02 in Snow Light Snow
5:29 PM 12.0 °F -1.3 °F 8.1 °F 84% 29.89 in 3.0 mi NNE 10.4 mph - 0.02 in Snow Light Snow
5:36 PM 12.0 °F -2.0 °F 8.1 °F 84% 29.90 in 4.0 mi NNE 11.5 mph - 0.02 in Snow Light Snow
5:54 PM 12.0 °F -3.4 °F 7.0 °F 80% 29.95 in 4.0 mi NNE 13.8 mph - 0.03 in Snow Light Snow
6:06 PM 12.2 °F -2.5 °F 6.8 °F 79% 29.91 in 1.8 mi North 12.7 mph - N/A Snow Light Snow
6:24 PM 10.9 °F -2.6 °F 7.0 °F 84% 29.90 in 2.0 mi NNE 10.4 mph - 0.00 in Snow Light Snow
6:52 PM 10.4 °F -4.1 °F 6.8 °F 85% 29.91 in 2.0 mi North 11.5 mph - 0.00 in Snow Light Snow
6:54 PM 10.9 °F -3.4 °F 7.0 °F 84% 29.96 in 2.0 mi North 11.5 mph - 0.01 in Snow Light Snow
7:30 PM 10.9 °F -3.4 °F 7.0 °F 84% 29.92 in 2.5 mi NNE 11.5 mph - 0.00 in Snow Light Snow
7:51 PM 10.4 °F -3.3 °F 6.8 °F 85% 29.93 in 5.0 mi North 10.4 mph - 0.01 in   Overcast
7:54 PM 10.9 °F -2.6 °F 7.0 °F 84% 29.99 in 7.0 mi North 10.4 mph - 0.01 in   Overcast
8:54 PM 10.9 °F -0.8 °F 7.0 °F 84% 29.97 in 10.0 mi NNE 8.1 mph - 0.00 in   Overcast
9:33 PM 10.9 °F 0.2 °F 7.0 °F 84% 29.93 in 8.0 mi North 6.9 mph - 0.00 in Snow Light Snow
9:49 PM 10.4 °F -3.3 °F 6.8 °F 85% 29.93 in 10.0 mi North 10.4 mph - 0.00 in   Overcast
9:54 PM 10.9 °F -1.8 °F 6.1 °F 81% 29.99 in 10.0 mi North 9.2 mph - 0.00 in   Overcast
10:02 PM 10.9 °F -0.8 °F 6.1 °F 81% 29.93 in 10.0 mi NNE 8.1 mph - N/A   Overcast
10:10 PM 10.9 °F -0.8 °F 6.1 °F 81% 29.93 in 10.0 mi North 8.1 mph - N/A   Overcast
10:17 PM 10.9 °F -0.8 °F 6.1 °F 81% 29.93 in 10.0 mi North 8.1 mph - N/A   Overcast
10:35 PM 10.0 °F -2.9 °F 6.1 °F 84% 29.94 in 10.0 mi North 9.2 mph - N/A   Overcast
10:54 PM 10.4 °F -2.4 °F 5.0 °F 79% 29.94 in 10.0 mi North 9.2 mph - N/A   Overcast
11:04 PM 10.0 °F -2.9 °F 5.0 °F 80% 29.95 in 10.0 mi NNW 9.2 mph - N/A   Overcast
11:34 PM 9.0 °F -0.9 °F 3.9 °F 80% 29.94 in 10.0 mi North 5.8 mph - N/A   Mostly Cloudy
11:54 PM 8.1 °F -2.0 °F 3.9 °F 83% 30.00 in 10.0 mi NNW 5.8 mph - N/A   Mostly Cloudy